Lid_Strength_Index
4 4 3 2 1 1 1 1 1 1 2 2 3 3 4 5 4 5 6 6 6 7 6 6 6 8 7 7 9 7 7 6 7 10 9 9 10 10 11 11 12 12 12 11 11 12 12 7 7 11 8 6 6 6
4 4 3 1 1 1 1 1 1 1 2 2 2 3 4 5 5 6 8 6 5 6 5 5 4 4 5 6 8 6 6 7 6 8 9 9 10 10 11 14 9 13 10 12 12 11 8 6 7 5 5 6 6 5
5 4 2 1 1 1 1 1 2 2 2 2 3 3 3 5 5 5 8 8 6 6 5 5 6 5 4 5 5 7 5 4 5 5 6 8 11 8 12 10 10 9 8 10 10 8 7 6 5 5 5 5 5 4
5 3 2 1 1 1 1 1 2 2 2 2 2 3 3 4 5 5 8 8 8 5 8 6 3 3 2 5 5 5 4 4 3 4 6 7 8 7 9 9 9 8 8 9 9 7 6 6 5 5 5 4 4 4
5 4 2 1 1 1 1 1 2 2 2 2 3 3 3 4 5 6 7 7 7 6 7 6 4 3 3 4 3 2 2 3 4 6 7 8 6 7 7 7 9 7 8 8 8 7 7 7 5 4 5 5 4 4
5 3 2 2 1 1 1 2 1 2 2 2 3 3 3 4 7 10 8 7 7 5 6 8 5 4 3 3 3 3 3 3 4 5 5 5 5 6 9 10 7 6 5 5 7 5 5 5 4 4 4 4 4 4
5 4 2 2 1 1 1 2 2 1 2 2 3 3 4 5 6 11 9 6 6 5 6 8 7 4 4 4 4 4 4 4 4 5 5 5 6 5 7 9 6 5 5 5 4 5 6 5 5 4 4 3 3 3
4 3 2 2 1 1 1 1 2 2 2 2 3 3 4 5 6 9 8 5 6 8 5 8 8 6 4 5 5 5 5 4 5 5 5 6 6 6 8 7 6 5 5 5 4 4 4 4 4 4 3 3 4 4
4 3 2 1 1 1 1 1 2 2 3 3 3 3 5 7 10 10 5 4 6 6 7 7 8 9 4 5 4 4 4 6 5 6 5 6 7 8 7 7 6 5 5 5 4 3 4 4 4 4 4 4 5 4
4 3 2 1 1 1 1 1 1 2 3 3 6 8 10 8 6 5 7 8 8 7 6 8 6 7 5 5 6 6 5 7 8 7 5 6 7 6 5 5 5 5 4 4 5 5 5 5 5 5 4 4 4 4
4 3 2 0 0 1 1 2 2 2 5 7 9 10 5 3 6 8 10 11 11 11 8 7 6 7 5 7 7 6 7 7 9 8 8 9 9 7 5 5 4 4 3 3 3 4 4 4 4 4 4 3 3 3
4 3 2 0 0 1 1 2 3 4 5 6 7 5 5 6 8 10 10 10 11 12 9 8 6 6 6 4 6 6 8 7 10 6 9 11 8 6 5 5 4 4 3 4 3 4 3 3 3 3 3 4 3 3
4 2 2 0 0 0 1 2 3 4 3 4 6 7 8 9 12 12 12 11 11 9 8 9 8 6 5 5 7 7 9 9 6 9 10 9 6 5 5 5 4 3 3 3 3 3 3 3 3 3 3 3 2 3
3 2 1 -0 -0 1 1 2 2 3 4 6 7 11 10 11 11 9 9 9 7 8 7 8 7 7 6 7 7 9 8 7 11 12 11 8 6 5 4 4 4 4 4 4 4 3 3 3 3 3 2 2 2 3
2 1 1 -0 0 1 2 1 2 3 5 6 7 11 10 8 8 8 7 7 7 6 7 7 6 6 7 8 7 8 10 11 10 10 8 6 5 5 5 4 4 4 4 4 3 4 3 3 3 3 2 2 2 2
1 0 1 -0 0 1 1 2 2 2 4 6 7 8 7 9 9 8 8 8 7 7 6 5 8 8 9 8 9 10 10 11 10 7 6 5 5 4 4 4 4 4 4 3 3 3 3 3 3 3 2 2 2 2
-0 1 -0 -0 0 1 1 2 3 5 5 7 7 6 7 7 8 7 7 7 6 6 7 7 9 10 7 9 10 8 9 8 7 6 5 4 4 4 4 4 3 3 4 3 3 3 3 2 2 3 3 2 2 2
1 -1 -1 0 1 2 2 2 4 5 7 7 8 7 7 6 6 5 5 5 5 6 6 8 6 9 10 11 10 8 6 5 4 5 4 4 3 3 3 3 3 3 3 3 3 3 2 3 3 3 2 2 2 2
-0 -1 -0 0 1 2 5 5 4 8 7 6 6 6 6 5 4 5 4 4 3 3 5 6 8 9 9 7 7 6 6 5 6 5 4 3 3 3 3 3 3 3 3 3 3 3 2 2 3 3 2 2 2 2
-1 -1 0 0 0 4 6 6 4 7 8 6 6 6 6 6 5 4 4 4 4 5 7 8 8 6 6 5 4 4 4 4 4 5 5 4 3 3 3 3 3 2 2 2 2 5 2 3 2 2 2 2 2 2
1 1 1 1 2 4 5 6 7 6 6 7 6 6 7 5 6 6 6 4 6 7 7 6 5 5 4 3 3 3 3 3 4 4 4 4 3 3 3 3 2 2 3 3 3 3 5 3 2 1 2 2 1 1
3 1 3 3 6 6 6 5 6 6 7 6 6 6 7 7 7 6 5 6 7 6 5 5 5 4 4 4 3 3 3 3 3 3 5 4 3 3 3 3 3 3 3 3 3 3 3 2 2 2 2 2 2 1
2 3 4 5 7 8 8 4 7 6 8 7 6 7 8 7 6 4 7 6 5 4 3 3 3 3 3 3 3 2 2 3 3 3 3 2 2 2 2 2 2 3 3 3 2 2 3 4 3 2 1 1 1 2
3 5 7 7 7 9 5 7 6 7 7 8 8 9 8 7 5 7 8 7 5 3 3 4 3 4 3 3 3 3 2 2 2 2 2 3 3 3 2 2 2 2 2 1 2 2 2 2 3 2 1 2 2 2
9 8 7 10 7 8 8 8 8 8 9 8 9 9 8 6 8 9 9 7 5 4 4 3 3 3 4 4 3 3 2 2 3 4 2 2 2 2 2 2 2 2 1 2 3 3 2 2 2 2 2 2 2 2
11 8 9 8 7 8 8 9 9 9 8 9 8 7 6 7 9 11 8 6 5 4 4 4 4 4 4 3 4 3 3 1 2 3 2 2 2 3 3 3 3 2 1 1 1 2 2 2 2 2 2 2 5 2
10 8 7 6 6 6 7 6 6 8 9 9 8 8 7 10 10 8 4 3 4 3 2 2 2 3 3 3 2 1 1 1 1 2 1 1 1 1 1 3 3 1 0 1 1 1 2 2 2 2 2 1 1 1
8 7 9 7 7 6 8 8 8 9 8 6 7 9 10 9 9 5 4 2 2 1 1 1 1 1 2 2 1 1 1 1 1 1 1 1 1 1 0 0 0 5 0 0 0 1 1 1 1 1 1 2 1 1
7 6 6 8 7 7 8 8 8 6 5 6 7 8 7 5 3 3 2 2 1 2 3 3 2 1 1 1 1 1 1 2 3 4 4 4 3 2 1 1 1 0 0 0 6 3 1 1 1 1 1 1 1 0
7 6 7 7 8 9 7 5 5 4 4 4 4 4 4 3 2 1 1 2 2 3 2 2 3 3 3 3 3 2 1 1 2 2 4 4 3 1 1 1 1 0 0 0 1 1 7 5 4 3 3 1 1 1
5 5 7 7 8 6 5 4 3 3 3 4 3 5 5 4 2 1 1 1 1 2 3 3 2 2 2 2 2 3 3 1 1 1 1 1 1 1 1 1 1 0 0 1 1 1 1 2 2 2 3 3 2 3
6 7 7 8 7 5 4 5 6 6 5 5 6 4 5 5 6 4 2 2 2 3 4 3 3 2 1 1 1 1 5 1 1 1 1 1 1 0 0 1 2 2 2 2 2 2 1 2 2 2 2 2 2 2
6 6 6 6 7 7 6 6 6 7 6 7 6 5 5 5 6 3 1 1 1 2 2 1 1 1 1 1 1 1 3 0 1 6 7 8 9 6 2 1 1 2 2 2 2 2 1 1 2 2 2 2 2 2